Location: Auckland
(36.8670°S, 174.7670°E)
Time: 20:01:59
(UTC+13:00)

Cosmos 2181 Rocket - Pass Details

Date: 24 January 2019
Orbit: 952 x 1015 km, 82.9° (Epoch: 17 February)

Event Time Altitude Azimuth Distance (km) Brightness Sun altitude
Rises 23:31:00 0° 183° (S) 3,674 7.9 -27.0°
Reaches altitude 10° 23:33:34 10° 178° (S) 2,727 7.0 -27.2°
Maximum altitude 23:39:43 58° 99° (E) 1,136 4.1 -27.9°
Enters shadow 23:39:47 58° 96° (E) 1,136 4.1 -27.9°
